Zurück zum Katalog

STARLINK-35369

AktivKommunikationVLEO
NORAD 68705·PAYLOAD·🇺🇸 United States

Gestartet Apr 14, 2026 von Cape Canaveral Space Force Station

Loading…

Nächste Überflüge (nächste 24 Stunden)

TLE

AktuellSource: CelesTrak SupGP

Epoche: Sep 14, 2026, 21:46 UTC

1 68705C 26081G   26257.90743056  .00034916  00000+0  10315-2 0  2570
2 68705  53.1572 232.0707 0001285  92.6027  28.6901 15.34376360    19

Verfolge STARLINK-35369 in Echtzeit mit AllMySat

Download on the App Store